FW8055 Weather Reports


time (UTC)temp
F
wind
direction
speed
knots
gust
knots
rain 1hr
in
rain 24hr
in
rain mn
in
humidity
%
barometer
mb
20260905143052 51 0 0.0 1.7 0.00 0.38 0.00 95 1017.7
20260905141603 51 0 0.0 0.0 0.00 0.38 0.00 96 1017.6
20260905140107 52 0 0.0 0.9 0.00 0.38 0.00 96 1017.5
20260905134553 52 0 0.0 0.0 0.00 0.38 0.00 96 1017.4
20260905133051 52 0 0.0 0.0 0.00 0.38 0.00 96 1017.5
20260905131609 52 0 0.0 0.0 0.00 0.38 0.00 95 1017.4
20260905130058 52 0 0.0 0.0 0.00 0.38 0.00 95 1017.3
20260905124553 53 0 0.0 0.0 0.00 0.38 0.00 95 1017.1
20260905123104 53 0 0.0 0.0 0.00 0.38 0.00 96 1017.1
20260905121555 53 0 0.0 0.0 0.00 0.38 0.00 96 1017.0
20260905114558 53 0 0.0 0.0 0.00 0.38 0.00 96 1017.1
20260905113053 53 0 0.0 2.6 0.00 0.38 0.00 96 1017.0
20260905111608 53 0 0.0 2.6 0.00 0.38 0.00 96 1016.8
20260905110056 53 0 0.0 2.6 0.00 0.38 0.00 96 1016.9
20260905104559 53 0 0.0 1.7 0.00 0.39 0.00 96 1016.9
20260905103054 53 0 0.0 1.7 0.00 0.39 0.00 96 1017.0
20260905101553 54 0 0.0 0.9 0.00 0.39 0.00 96 1017.1
20260905100101 54 0 0.0 1.7 0.00 0.39 0.00 96 1017.1
20260905094554 54 0 0.0 1.7 0.00 0.40 0.00 96 1017.0
20260905093055 54 0 0.0 0.0 0.00 0.40 0.00 96 1017.1
20260905091609 53 0 0.0 0.0 0.00 0.40 0.00 96 1017.1
20260905090049 54 0 0.0 0.0 0.00 0.40 0.00 96 1016.9
20260905084610 54 0 0.0 0.0 0.00 0.43 0.00 96 1017.0
20260905083054 53 0 0.0 0.0 0.00 0.43 0.00 95 1016.9
20260905081603 53 0 0.0 0.0 0.00 0.43 0.00 95 1016.7
20260905080054 53 0 0.0 0.0 0.00 0.43 0.00 95 1016.7
20260905074557 54 0 0.0 0.0 0.00 0.48 0.00 95 1016.7
20260905073106 54 0 0.0 0.0 0.00 0.48 0.00 95 1016.7
20260905071603 55 0 0.0 0.0 0.00 0.48 0.00 95 1016.4
20260905070055 55 0 0.0 0.0 0.00 0.48 0.00 95 1016.4
20260905064553 55 0 0.0 0.0 0.00 0.48 0.48 95 1016.4
20260905063100 56 0 0.0 0.0 0.00 0.48 0.48 95 1016.4
20260905061611 56 0 0.0 0.0 0.00 0.48 0.48 95 1016.4
20260905060104 56 0 0.0 0.0 0.00 0.48 0.48 95 1016.5
20260905054551 56 0 0.0 0.0 0.00 0.49 0.48 95 1016.4
20260905053140 56 0 0.0 0.0 0.00 0.49 0.48 95 1016.3
20260905051557 56 0 0.0 1.7 0.00 0.49 0.48 95 1016.4
20260905050053 56 0 0.0 0.0 0.00 0.49 0.48 95 1016.4
20260905044554 56 0 0.0 0.0 0.00 0.50 0.48 95 1016.3
20260905043058 56 0 0.0 0.0 0.01 0.50 0.48 95 1016.3
20260905041555 56 0 0.0 0.0 0.02 0.50 0.48 95 1016.1
20260905040106 56 0 0.0 0.0 0.04 0.50 0.48 95 1016.0
20260905034558 56 0 0.0 0.0 0.06 0.50 0.48 94 1016.0
20260905033106 57 0 0.0 0.0 0.05 0.49 0.47 95 1015.8
20260905031604 57 0 0.0 0.0 0.04 0.48 0.46 94 1015.7
20260905030101 57 0 0.0 0.0 0.02 0.46 0.44 94 1015.6
20260905024607 57 0 0.0 2.6 0.00 0.44 0.42 94 1015.5
20260905023105 58 0 0.0 0.0 0.00 0.44 0.42 94 1015.2
20260905021553 58 0 0.0 0.9 0.00 0.44 0.42 95 1015.3
20260905020108 58 0 0.0 0.0 0.01 0.44 0.42 95 1015.2
20260905014559 58 0 0.0 0.0 0.02 0.45 0.42 95 1015.1
20260905013050 58 0 0.0 0.0 0.03 0.45 0.42 95 1015.0
20260905011605 58 0 0.0 0.0 0.04 0.45 0.42 95 1014.9
20260905010055 57 0 0.0 0.9 0.06 0.44 0.41 95 1014.7
20260905004555 57 0 0.0 0.0 0.07 0.44 0.40 94 1014.7
20260905003102 57 0 0.0 0.0 0.06 0.43 0.39 94 1014.4
20260905001558 57 0 0.0 0.0 0.05 0.42 0.38 94 1014.3
20260905000055 58 0 0.0 0.0 0.04 0.39 0.35 94 1014.2
20260904234558 58 0 0.0 0.0 0.06 0.37 0.33 93 1014.2
20260904233052 58 0 0.0 0.0 0.08 0.37 0.33 94 1014.1
20260904231559 58 0 0.0 0.0 0.11 0.37 0.33 93 1014.1
20260904230055 58 0 0.0 2.6 0.11 0.35 0.31 92 1014.1
20260904224604 59 0 0.0 0.9 0.08 0.33 0.27 93 1014.0
20260904223104 59 0 0.0 1.7 0.08 0.31 0.25 93 1013.9
20260904221600 59 0 0.0 0.0 0.07 0.28 0.22 93 1013.8
20260904220058 59 0 0.0 0.9 0.06 0.26 0.20 92 1013.7
20260904214553 60 0 0.0 0.0 0.04 0.29 0.18 92 1013.6
20260904213055 60 0 0.0 0.0 0.02 0.27 0.16 91 1013.6
20260904211554 60 0 0.0 0.0 0.01 0.26 0.15 90 1013.5
20260904210106 61 0 0.0 0.9 0.00 0.25 0.14 88 1013.2
20260904204556 61 0 0.0 0.9 0.00 0.25 0.14 88 1013.2
20260904203056 61 0 0.0 0.9 0.00 0.25 0.14 87 1013.0
20260904201610 61 0 0.0 0.9 0.00 0.25 0.14 85 1013.0
20260904200052 61 0 0.0 2.6 0.00 0.25 0.14 85 1013.0
20260904194608 61 0 0.0 2.6 0.00 0.25 0.14 85 1013.1
20260904193054 61 217 0.0 1.7 0.00 0.25 0.14 85 1013.1
20260904191557 61 0 0.0 4.3 0.00 0.25 0.14 87 1013.1
20260904184600 60 0 0.0 1.7 0.01 0.25 0.14 89 1013.1
20260904183054 59 0 0.0 4.3 0.01 0.25 0.14 89 1013.1
20260904181553 58 0 0.0 1.7 0.01 0.25 0.14 93 1013.0
20260904180059 57 0 0.0 3.5 0.01 0.25 0.14 92 1012.8
20260904174552 57 232 0.9 2.6 0.02 0.24 0.13 92 1012.8
20260904173127 56 0 0.0 1.7 0.03 0.24 0.13 93 1012.8
20260904171608 56 0 0.0 0.9 0.03 0.24 0.13 92 1012.8
20260904170058 57 0 0.0 2.6 0.03 0.24 0.13 91 1012.5
20260904164605 57 0 0.0 0.9 0.01 0.22 0.11 89 1012.5
20260904163101 57 0 0.0 2.6 0.00 0.21 0.10 87 1012.4
20260904161557 57 0 0.0 7.0 0.00 0.21 0.10 89 1012.1
20260904160055 56 0 0.9 5.2 0.00 0.21 0.10 88 1012.1
20260904154553 55 0 0.9 3.5 0.00 0.21 0.10 90 1012.1
20260904153101 55 0 0.0 0.9 0.00 0.21 0.10 95 1012.0
20260904151605 54 0 0.0 0.9 0.00 0.21 0.10 95 1011.9
20260904150113 54 0 0.0 0.0 0.00 0.21 0.10 95 1011.8
20260904144603 53 0 0.0 1.7 0.00 0.21 0.10 95 1011.7